Regional Weather Roundup
Issued by NWS Kansas City/Pleasant Hill, MO

Home | Current Version | Previous Version | Graphics & Text | Print | Product List | Glossary Off
Versions: 1 2 3 4 5 6 7 8 9 10 11 12 13 14 15 16 17 18 19 20 21 22 23 24 25 26 27 28 29 30 31 32 33 34 35 36 37 38 39 40 41 42 43 44 45 46 47 48 49 50

000
ASUS43 KEAX 241010
RWREAX

WEATHER ROUNDUP FOR EASTERN KANSAS AND NORTHWEST MISSOURI
NATIONAL WEATHER SERVICE KANSAS CITY/PLEASANT HILL MO
500 AM CDT WED MAY 24 2017

KSZ040-057-103>105-MOZ028-029-037-043-241100-
...KANSAS CITY METROPOLITAN AREA...

CITY           SKY/WX    TMP DP  RH WIND       PRES   REMARKS
K.C. INTL      CLOUDY    48  47  96 NW6       29.72F
K.C. DOWNTOWN  CLEAR     50  47  89 NW6       29.72F
LEES SUMMIT    CLEAR     48  47  96 NW7       29.72F
OLATHE - IXD   CLEAR     47  46  97 NW10      29.74S
OLATHE - OJC   CLEAR     47  47 100 NW6       29.72F
LAWRENCE       CLEAR     48  47  96 W9        29.75F

$$

MOZ001>008-011>017-020>025-030>033-038>040-044>046-053-054-241100-
...NORTHERN AND CENTRAL MISSOURI...

CITY           SKY/WX    TMP DP  RH WIND       PRES   REMARKS
ST. JOSEPH     CLOUDY    50  49  96 NW10      29.73F
MOSBY          SUNNY     48  45  87 NW6       29.71F
WARRENSBURG    CLEAR     46  45  93 W5        29.70F
WHITEMAN AFB   CLEAR     49  49 100 NW7       29.69S
CLINTON        PTCLDY    48  46  93 NW7       29.71S
SEDALIA        CLEAR     50  48  93 NW6       29.69F
WARSAW         NOT AVBL
CHILLICOTHE      N/A     47  45  93 VRB3      29.70F
KIRKSVILLE     MOCLDY    44  44 100 NW5       29.66F

$$

MOZ041-047>049-056>058-063>065-088>090-097-241100-
...EASTERN AND SOUTHERN MISSOURI...

CITY           SKY/WX    TMP DP  RH WIND       PRES   REMARKS
ST. LOUIS INTL PTCLDY    53  49  86 W7        29.62F
SPIRIT OF STL  CLEAR     51  49  92 W5        29.63S
COLUMBIA       CLOUDY    51  49  92 NW8       29.66F
JEFFERSON CITY CLOUDY    55  48  77 NW6       29.66F
ROLLA          CLOUDY    50  49  96 NW6       29.64F
OSAGE BEACH    LGT RAIN  53  47  79 VRB5      29.68F
SPRINGFIELD    CLOUDY    53  50  89 NW7       29.69F
BRANSON        MOCLDY    50  48  93 NW9       29.70S
JOPLIN         CLOUDY    53  49  86 NW8       29.74S
WEST PLAINS    CLEAR     50  46  86 N5        29.65F

$$

IAZ060-094-KSZ022-034>040-054-083-096-NEZ052-066-093-241100-
...KANSAS...SOUTHEAST NEBRASKA AND IOWA...

CITY           SKY/WX    TMP DP  RH WIND       PRES   REMARKS
TOPEKA         PTCLDY    48  47  96 W8        29.76S
MANHATTAN      PTCLDY    48  44  86 VRB3      29.80F
EMPORIA        CLOUDY    49  45  86 NW12G17   29.78F
CHANUTE        CLEAR     50  45  83 NW8       29.76F
WICHITA        PTCLDY    48  43  82 NW10      29.83F
OMAHA          CLOUDY    50  45  83 N12       29.77S
LINCOLN        CLEAR     48  45  89 NW12      29.82S
FALLS CITY     CLOUDY    50  47  89 NW13      29.74F
LAMONI         CLOUDY    47  46  97 W6        29.69S
DES MOINES     LGT RAIN  52  50  93 N7        29.68S

$$




USA.gov is the U.S. government's official web portal to all federal, state and local government web resources and services.